Back to catalog

KUIPER-00414

AliveCommunicationsLEO
NORAD 68929·PAYLOAD·🇺🇸 United States

Launched Apr 30, 2026 from Guiana Space Centre

Loading…

Next Passes (next 24 hours)

TLE

FreshSource: CelesTrak SupGP

Epoch: Sep 14, 2026, 18:21 UTC

1 68929C 26098L   26257.76493056  .00005810  00000+0  76053-3 0  2575
2 68929  51.8977  34.6242 0001598 125.6809  32.3935 14.79928328    17

Track KUIPER-00414 in real time with AllMySat

Download on the App Store